Home > Weather > Lublin > Past weeks

Flag for Poland Past Weather in Lublin, Poland — Yesterday and Last 2 Weeks

Now
58 °F

Passing clouds.


Feels Like: 58 °F
Forecast: 61 / 87 °F
Wind: No wind

Location: Lublin Radawiec

Current Time: Jun 29, 2016 at 7:40:43 AM

Latest Report: Jun 29, 2016 at 6:00 AM


Visibility: 11 mi

Pressure: 30.03 "Hg

Humidity: 91%

Dew Point: 55 °F

Location of LublinLocation

Past Weather in Lublin — Graph

°F

Lublin Temperature Yesterday

Maximum temperature yesterday: 73 °F (at 4:00 PM)
Minimum temperature yesterday: 56 °F (at 11:00 PM)
Average temperature yesterday: 65 °F

High & Low Weather Summary for the Past Weeks

 TemperatureHumidityPressure
High89 °F (Jun 26, 2:00 PM)99% (Jun 15, 2:00 AM)30.31 "Hg (Jun 15, 2:00 AM)
Low51 °F (Jun 29, 5:00 AM)37% (Jun 19, 12:00 PM)29.50 "Hg (Jun 15, 1:00 AM)
Average69 °F73%29.97 "Hg
* Reported Jun 14 6:00 AM — Jun 29 6:00 AM, Lublin, Weather by CustomWeather, © 2016

Note: Actual official high and low records may vary slightly from our data, if they occured in-between our weather recording intervals... More about our weather records

Advertising

Lublin Weather History for the Previous 24 Hours

Scroll right to see more
 ConditionsComfort  
Time TempWeatherWind HumidityBarometerVisibility
6:00 AM
Wed, Jun 29
58 °FPassing clouds.No wind91%30.03 "Hg11 mi
5:00 AM51 °FPassing clouds.No wind95%30.03 "Hg8 mi
4:00 AM53 °FClear.No wind94%30.03 "Hg8 mi
3:00 AM53 °FClear.1 mph92%30.03 "Hg16 mi
11:00 PM
Tue, Jun 28
56 °FClear.No wind80%30.03 "Hg17 mi
10:00 PM57 °FPassing clouds.1 mph80%30.03 "Hg17 mi
9:00 PM62 °FPassing clouds.1 mph67%30.01 "Hg28 mi
8:00 PM68 °FPassing clouds.1 mph54%29.99 "Hg28 mi
6:00 PM72 °FPassing clouds.2 mph46%29.98 "Hg28 mi
5:00 PM72 °FScattered clouds.5 mph43%29.97 "Hg25 mi
4:00 PM73 °FScattered clouds.3 mph41%29.97 "Hg19 mi
3:00 PM72 °FScattered clouds.6 mph43%29.98 "Hg19 mi
2:00 PM71 °FOvercast.3 mph54%29.98 "Hg25 mi
1:00 PM71 °FPartly sunny.3 mph56%29.99 "Hg19 mi
12:00 PM69 °FOvercast.3 mph61%30.00 "Hg22 mi
11:00 AM68 °FOvercast.5 mph65%30.01 "Hg19 mi
10:00 AM66 °FOvercast.5 mph66%30.01 "Hg22 mi
9:00 AM63 °FOvercast.3 mph79%30.01 "Hg25 mi
8:00 AM61 °FOvercast.3 mph89%30.01 "Hg16 mi
7:00 AM60 °FOvercast.3 mph91%30.01 "Hg15 mi
Weather by CustomWeather, © 2016

See weather overviewHow to use our weather pages